Simultaneous Nadir Overpasses (SNOs) Predictions

Prediction of SNOs between LANDSAT-8 and NPP Satellite Orbit:

Table of predicted SNOs for the next 14.0 days since TLE Epoch: 8/26/2022
Index Date (LANDSAT-8) Time (LANDSAT-8) Lat,Lon (LANDSAT-8) SZA (LANDSAT-8 ) Date (NPP) Time (NPP) Lat,Lon (NPP) SZA (NPP ) Distance(km) Time Diff (sec)
1 08/26/2022 22:25:58 -70.16, 20.16 120.07 08/26/2022 22:24:48 -70.17, 20.09 120.05 2.93 70
2 08/26/2022 23:15:26 70.00,-172.41 59.80 08/26/2022 23:15:31 70.00,-172.33 59.79 3.13 5
3 08/27/2022 00:04:58 -69.78, -5.09 120.41 08/27/2022 00:06:10 -69.75, -4.65 120.46 17.39 72
4 08/29/2022 14:42:28 -70.10, 135.96 119.19 08/29/2022 14:41:43 -70.08, 136.00 119.20 2.92 45
5 08/29/2022 15:31:55 70.00, -56.54 60.73 08/29/2022 15:32:28 70.01, -56.59 60.75 2.61 33
6 09/01/2022 06:09:18 70.69, 85.08 62.34 09/01/2022 06:08:09 70.76, 83.36 62.46 63.72 69
7 09/01/2022 06:58:58 -70.03,-108.25 118.29 09/01/2022 06:58:39 -70.04,-108.18 118.29 2.84 19
8 09/01/2022 07:48:25 69.93, 59.25 61.62 09/01/2022 07:49:23 69.92, 59.31 61.61 2.32 58
9 09/03/2022 22:25:56 70.12,-159.87 62.76 09/03/2022 22:24:52 70.10,-159.82 62.74 3.17 64
10 09/03/2022 23:15:26 -70.02, 7.61 117.34 09/03/2022 23:15:34 -70.00, 7.65 117.35 1.95 8
11 09/04/2022 00:05:01 69.46, 174.50 62.15 09/04/2022 00:06:10 69.47, 175.75 62.12 48.76 69
12 09/06/2022 14:42:25 70.09, -44.03 63.72 09/06/2022 14:41:48 70.07, -44.01 63.70 2.75 37
13 09/06/2022 15:31:55 -69.99, 123.46 116.37 09/06/2022 15:32:30 -69.97, 123.46 116.39 2.28 35
14 09/09/2022 06:09:20 -70.55, -95.11 114.84 09/09/2022 06:08:09 -70.62, -96.41 114.75 48.47 71
15 09/09/2022 06:58:54 70.06, 71.81 64.69 09/09/2022 06:58:44 70.04, 71.80 64.67 1.76 10
16 09/09/2022 07:48:24 -69.96,-120.70 115.40 09/09/2022 07:49:26 -69.94,-120.73 115.43 2.19 62



Historial Predications of SNOs between LANDSAT-8 and NPP
